Tracking 25648 objects as of 16-May-2022
HD Live streaming from Space Station
objects crossing your sky now

FREGAT DEB

Track FREGAT DEB now!
10-day predictions


NORAD ID: 45837
Int'l Code: 2011-037BX
Perigee: 924.3 km
Apogee: 4,121.7 km
Inclination: 51.5 °
Period: 139.1 minutes
Semi major axis: 8894 km
RCS: Unknown
Launch date: July 18, 2011
Source: Commonwealth of Independent States (former USSR) (CIS)
Launch site: TYURATAM MISSILE AND SPACE COMPLEX (TTMTR)

Note: This is SATELLITE DEBRIS
aabbcc
Your satellite tracking list
Your tracking list is empty




NASA's NSSDC Master Catalog

Two Line Element Set (TLE):
1 45837U 11037BX  22135.89125372 -.00019130  00000-0 -99371-1 0  9995
2 45837  51.5319 347.9572 1797519  50.8196 323.8976 10.35038856 73836
Source of the keplerian elements: AFSPC